This is the latest recevied weather packets stored in our database for station/object BG5HLN-13. If no packets are shown the sender has not sent any weather packets the latest 10 day(s).
| Time | Temp. | Humidity | Pressure | Rain* | Wind** | Luminosity | Snow |
|---|---|---|---|---|---|---|---|
| 1777603752 | 21.67° C | 64% | 1016.6 hPa | 0 mm | - | - | - |
| 1777602648 | 21.11° C | 66% | 1016.7 hPa | 0 mm | - | - | - |
| 1777602046 | 21.11° C | 68% | 1016.7 hPa | 0 mm | - | - | - |
| 1777601447 | 20.56° C | 68% | 1016.9 hPa | 0 mm | - | - | - |
| 1777600847 | 20.56° C | 69% | 1017.1 hPa | 0 mm | - | - | - |
| 1777600247 | 20° C | 70% | 1017.1 hPa | 0 mm | - | - | - |
| 1777599648 | 20° C | 72% | 1017.1 hPa | 0 mm | - | - | - |
| 1777599047 | 19.44° C | 72% | 1017.1 hPa | 0 mm | - | - | - |
| 1777598447 | 19.44° C | 72% | 1016.9 hPa | 0 mm | - | - | - |
| 1777597850 | 19.44° C | 72% | 1016.9 hPa | 0 mm | - | - | - |
| 1777597846 | 19.44° C | 72% | 1016.8 hPa | 0 mm | - | - | - |
| 1777597247 | 18.89° C | 72% | 1016.9 hPa | 0 mm | - | - | - |
| 1777596646 | 18.33° C | 75% | 1017 hPa | 0 mm | - | - | - |
| 1777596047 | 18.33° C | 76% | 1016.9 hPa | 0 mm | - | - | - |
| 1777595446 | 17.78° C | 77% | 1017 hPa | 0 mm | - | - | - |
| 1777594847 | 17.78° C | 79% | 1017.1 hPa | 0 mm | - | - | - |
| 1777594245 | 17.22° C | 79% | 1016.9 hPa | 0 mm | - | - | - |
| 1777593646 | 16.67° C | 80% | 1016.9 hPa | 0 mm | - | - | - |
| 1777593047 | 16.67° C | 82% | 1016.7 hPa | 0 mm | - | - | - |
| 1777592447 | 16.11° C | 83% | 1016.8 hPa | 0 mm | - | - | - |
| 1777591846 | 16.11° C | 85% | 1016.9 hPa | 0 mm | - | - | - |
| 1777591246 | 15.56° C | 85% | 1016.8 hPa | 0 mm | - | - | - |
| 1777590646 | 15.56° C | 84% | 1016.6 hPa | 0 mm | - | - | - |
| 1777590046 | 15.56° C | 84% | 1016.6 hPa | 0 mm | - | - | - |
| 1777589446 | 15° C | 84% | 1016.7 hPa | 0 mm | - | - | - |
* Rain latest hour (hover to see other rain measurements)
** Current wind speed in m/s (hover to see current wind gust speed)